Погода в Полтавке

Погода в Полтавке : погода сейчас, прогноз погоды и архив. Всё, что Вы хотите узнать о погоде в Полтавке!

Хотите узнать прогноз погоды в Полтавке? Тогда Вам сюда: Погода в Полтавке

Поиск расширенной информации на нашем сайте:

Другие новости

Новости СМИ2

Главная страница сайта

Новости сайта

03.07.2017

Напоминаем, что на нашем специализированном сайте Метеоцентр.Азия вы можете получить высокодетализированные автоматические прогнозы погоды по пунктам России, СНГ и мира в авиационном формате (включающие направление и скорость ветра, видимость, явления погоды, количество и форму облачности, нижнюю и верхнюю границу облачности).


Погода в Полтавке - сегодня

Время (UTC), дата Ветер
(°,м/с) 
Видим.   Явления Облачность Т
(°С)
Тd
(°С)
f(%) Тe
(°С)
Pmin
(гПа)
dP
(гПа)
Po
(мм)
O2
(г/м3)
Тmin Tmax R s Состояние
почвы
12 22.09.17 340 (С) 2{11}  20000 м  в посл. час ливневой дождь  10/5 600 м кучево-дожд., средняя, верхняя 
[Cb calv|Ac trans|Ci sp]
+6.1 +3.7 85 +6  1020.9  0.1  754  297           
15 22.09.17 010 (С) 10 км  в посл. час ливневой дождь  10/5 600 м кучево-дожд., средняя 
[Cb calv|Ac und]
+4.8 +2.3 84 +3  1022.5  1.6  755  299    +10.3  0.9     
18 22.09.17 020 (С) 5{11}  10 км  в посл. час ливневой дождь  8/5 600 м кучево-дожд., средняя 
[Cb calv|Ac trans]
+2.1 -3.2 68 -1  1024.4  1.7  757  303           
21 22.09.17 320 (СЗ) 3{10}  10 км    10/5 600 м кучево-дожд., средняя 
[Cb calv|Ac und]
+1.6 -3.5 69 1024.9  0.4  757  304           
00 23.09.17 010 (С) 3{10}  10 км    10/4 600 м кучево-дожд., средняя, верхняя 
[Cb calv|Ac trans|Ci sp]
+1 -6.2 59 -1  1025.7  0.8  757  305           
03 23.09.17 020 (С) 4{11}  20000 м  {ливн. осадки}  10/4 600 м кучево-дожд., средняя, верхняя 
[Cb calv|Ac trans|Ci sp]
+1.2 -5.1 63 -1  1026.3  0.6  758  305  +0.7    0.0    влажная 
06 23.09.17 020 (С) 3{11}  20000 м  {ливн. осадки}  10/5 600 м кучево-дожд., средняя, верхняя 
[Cb calv|Ac trans|Ci sp]
+82.2 -2.4 1 +82  1026.7  0.4  758  225           
09 23.09.17 340 (С) 6-10{12}  20000 м    10/5 600 м кучево-дожд., средняя, верхняя 
[Cb calv|Ac trans|Ci sp]
+2.5 -4.5 60 1027.7  759  304           
12 23.09.17 340 (С) 5-10{12}  20000 м    10/8 600 м средняя, верхняя 
[Sc|Ac trans|Ci sp]
+2.1 -5.4 58 -1  1028.8  1.1  760  304           
15 23.09.17 340 (С) 5{11}  10 км    10/10 1110 м 
[Sc]
+1.6 -5 61 -1  1030.1  1.2  761  305    +3       
18 23.09.17 340 (С) 10 км    10/10 960 м 
[Sc]
+1.1 -5.6 61 1031  0.9  761  306           
21 23.09.17 340 (С) 10 км    10/10 930 м 
[Sc]
+1 -5.7 61 -1  1031.5  0.5  762  306           
00 24.09.17 330 (СЗ) 10 км    10/10 900 м 
[Sc]
+0.9 -5.5 62 -1  1032.5  762  307           
03 24.09.17 320 (СЗ) 20000 м    10/8 600 м верхняя 
[Sc|Ci sp]
+1.4 -5.5 60 1034.1  1.6  764  307  +0.8        сухая 
06 24.09.17 350 (С) 20000 м    10/6 600 м средняя, верхняя 
[Sc|Ac trans|Ci sp]
+3 -4.2 59 +2  1034.4  0.4  764  305           
09 24.09.17 360 (С) 20000 м    10/8 1110 м верхняя 
[Sc|Ci sp]
+4.8 -4.3 52 +3  1034.3  0.1  764  303           
12 24.09.17 330 (СЗ) 20000 м    10/10 1000 м 
[Sc]
+4.6 -3.8 54 +4  1035.3  0.9  765  303           
15 24.09.17 330 (СЗ) 10 км    10/10 900 м 
[Sc]
+3.6 -2.7 63 +3  1036  0.6  765  305    +5.2       
18 24.09.17 040 (СВ) 10 км    10/10 800 м 
[Sc]
+2.4 -2.5 70 +3  1036.3  0.1  765  306           
21 24.09.17 тихо ()   10 км    10/10 840 м 
[Sc]
+2.6 -2.9 67 +3  1035.7  -0.4  765  306           
00 25.09.17 тихо ()   10 км    10/10 870 м 
[Sc]
+1.8 -2.6 73 +2  1035.8  -0.1  765  306           
03 25.09.17 360 (С) 20000 м    10/10 800 м 
[Sc]
+2.2 -2.1 73 +3  1035.9  0.1  765  306  +1.6        сухая 
06 25.09.17 060 (СВ) 20000 м    10/10 840 м 
[Sc]
+3.4 -4.4 57 +4  1035.7  765  305           
09 25.09.17 310 (СЗ) 20000 м    8/8 600 м верхняя 
[Sc|Ci sp]
+5.2 -4.9 48 +6  1034.8  -0.8  764  303           
12 25.09.17 050 (СВ) 20000 м    3/3 600 м верхняя 
[Sc|Ci fib]
+5.4 -4.6 48 +5  1033.6  -1.1  764  302           
Время (UTC), дата Ветер
(°,м/с) 
Видим.   Явления Облачность Т
(°С)
Тd
(°С)
f(%) Тe
(°С)
Pmin
(гПа)
dP
(гПа)
Po
(мм)
O2
(г/м3)
Тmin Tmax R s Состояние
почвы

Для получения пояснительной информации подведите курсор к названию столбца.

ПОГОДА в Полтавке - архив

Всё, что Вы хотите узнать о погоде в Полтавке - удобно и подробно!

Выберите нужную дату (начиная с 1 января 2015* года) и нажмите кнопку "Найти".
Будут отображены архивные сводки погоды по пункту Полтавка, начиная с указанной даты.


Отображать данные в формате CSV (для использования в таблицах Excel)


Внимание! Наш архив погоды предназначен исключительно для личного некоммерческого использования в познавательных целях. Если Вам необходимы официальные справки о состоянии погоды (для производственных, юридических, коммерческих и т.п. целей), обращайтесь в органы Росгидромета.

*Примечание: данная дата относится к архиву по метеостанциям СССР (Россия, СНГ, Балтия).
Архив по метеостанциям Зарубежной Европы и Азии (кроме Китая) хранится 10 дней, по другим регионам земного шара (Китай, Африка, Америка, Австралия, Океания) - 1 день.

Полтавка - район местоположения метеостанции


Название, широта, долгота, высота метеостанции:
Полтавка 54.4°ш. 71.8°д. 125 м над ур. моря [Российская Федерация]

Дополнительная информация

В oтличие oт бoльшинства пoгoдных сайтoв мы публикуем пoдрoбную метеoинфoрмацию в детальнoм прoфессиoнальнoм фoрмате.

Характеристики температуры и влажнoсти вoздуха измеряются на высoте 2 м в тени вдали oт зданий и деревьев.
Скoрoсть ветра измеряется на высoте 10 м (на урoвне рoста челoвека скoрoсть ветра ниже в 1.5-2 раза). Если метеoстанция нахoдится в гoрoде или в лесу, тo скoрoсть ветра занижена на 2-4 м/с пo сравнению с oткрытым местoм. Скoрoсть ветра над акватoриями крупных рек и oзёр, а также на вершинах хoлмoв на 2-5 м/с выше, чем в oбычных услoвиях.
Атмoсфернoе давление в разных тoчках местнoсти мoжет значительнo oтличаться oт давления на метеoстанции, в зависимoсти oт услoвий рельефа (при пoдъёме на 10 м давление пoнижается примернo на 1 мм рт.ст.).